Aeroporto :
LOGIN :

Iscrizione | Disclaimer

   EN    FR    IT 

 










Sommario :    VFR   VFR Marginale   IFR   IFR Intensivo   IFR Molto Intensivo
Visibilità : 
Base nubi : 
>= 8 km
>= 3000ft
5 / 8 km
1000 / 3000 ft
1500m / 5 km
500 / 1000 ft
800 / 1500m
200 / 500 ft
< 800m
< 200 ft
Simboli :   Temporali  Nebbia  Neve Forte  Precipitazioni Forti  Vento > 20 kt
SIGMETs :   Varie  Temporali  Ghiacco  Turbolenza  Onda orograficha  Ceneri Vulcaniche







- Altitudine del aeroporto : 357 ft
- Codice IATA : TUF
- Carte del aeroporto


LFOT - Tours

ULTIMO METAR :
  • 161130Z AUTO 19003KT 140V250 CAVOK 12/05 Q1027 NOSIG

METARs OBSOLETI :
  • 161100Z AUTO 19004KT 150V220 CAVOK 11/05 Q1027 NOSIG
  • 161030Z AUTO 17005KT CAVOK 10/04 Q1027 NOSIG
  • 161000Z AUTO 19005KT 170V230 CAVOK 09/03 Q1027 NOSIG
  • 160930Z AUTO 17005KT CAVOK 07/02 Q1027 NOSIG
  • 160900Z AUTO 14008KT 9000 NSC 05/01 Q1027 NOSIG

TAF TAF LFOT
Valido dal 16 a 12 ore il 17 a 12 ore UTC


161100Z 1612/1712 15005KT CAVOK
TEMPO 1623/1708 3000 BR
PROB30
TEMPO 1703/1708 0800 FG VV///
BECMG 1709/1711 21012KT
Nessun NOTAM noto per questo aeroporto.



MetMap, La meteo Aeronautica in un colpo d'occhio ! - Copyright ORBIFLY Dicembre 2007 - Disclaimer

ORBIFLY MET'MAP TEAM :

Programmazione e sviluppo : Alexandra Zaïnal
Concezione e sviluppo : Baudouin d'Aumeries
Co-Programmazione e sviluppo : Marc-Olivier Méhu
Supporto tecnico e logistico : Manuel Goepfert
Aiuto per la traduzione : Arnaldo La Scala

Contatto : metmap@orbifly.com




FONTI E CREDITI :

   NOAA